Flag for Niger Weather past 2 weeks in Niamey, Niger

Now
91 °F

Clear.


Feels Like: 88 °F
Forecast: 86 / 109 °F
Wind: 3 mph from Southwest

Location: Niamey-Aero


UV Index: 10 (Very high)

Visibility: 10 mi


Pressure: 29.77 "Hg

Humidity: 24%

Dew point: 50 °F

Location of NiameyLocation

Historic Weather in Niamey

°F

Niamey temperature yesterday

Maximum temperature yesterday: 108 °F (at 4:00 PM)
Minimum temperature yesterday: 84 °F (at 7:00 AM)
Average temperature yesterday: 96 °F

Past Weeks' High & Low Weather Summary

 TemperatureHumidityPressure
High111 °F (Apr 17, 4:00 PM)58% (Apr 19, 7:00 AM)29.89 "Hg (Apr 19, 7:00 AM)
Low81 °F (Apr 5, 4:00 AM)5% (Apr 10, 12:00 PM)29.62 "Hg (Apr 17, 5:00 PM)
Average96 °F23%29.76 "Hg
* Reported Apr 5 2:00 AM — Apr 20 2:00 AM, Niamey, Weather by CustomWeather, © 2014

Note: Actual official high and low records may vary slightly from our data, if they occured in-between our weather recording intervals... More about our weather records

Advertising

Historic Weather Conditions — Data for Previous 24 hours

 ConditionsComfort  
Time TempWeatherWind HumidityBarometerVisibility
2:00 AM
Apr 20
91 °FClear.3 mph24%29.77 "Hg10 mi
1:00 AM91 °FClear.1 mph24%29.77 "Hg10 mi
12:00 AM93 °FClear.3 mph23%29.80 "Hg10 mi
11:00 PM
Apr 19
95 °FClear.No wind22%29.80 "Hg10 mi
10:00 PM97 °FClear.No wind19%29.77 "Hg5 mi
9:00 PM99 °FClear.No wind18%29.77 "Hg5 mi
8:00 PM102 °FClear.1 mph14%29.74 "Hg5 mi
7:00 PM104 °FSunny.2 mph14%29.74 "Hg10 mi
6:00 PM106 °FSunny.2 mph13%29.71 "Hg10 mi
5:00 PM108 °FPassing clouds.5 mph13%29.71 "HgN/A
4:00 PM108 °FPassing clouds.9 mph13%29.74 "HgN/A
3:00 PM106 °FPassing clouds.10 mph18%29.74 "HgN/A
2:00 PM102 °FPassing clouds.10 mph23%29.80 "HgN/A
1:00 PM100 °FPassing clouds.13 mph25%29.83 "HgN/A
12:00 PM99 °FSunny.16 mph29%29.86 "Hg10 mi
11:00 AM95 °FSunny.15 mph34%29.86 "Hg10 mi
10:00 AM93 °FSunny.14 mph36%29.89 "Hg10 mi
9:00 AM90 °FSunny.12 mph46%29.86 "Hg10 mi
8:00 AM86 °FSunny.13 mph52%29.83 "Hg10 mi
7:00 AM84 °FSunny.9 mph58%29.80 "Hg10 mi
6:00 AM86 °FClear.10 mph55%29.77 "Hg10 mi
5:00 AM86 °FClear.8 mph55%29.77 "Hg10 mi
4:00 AM88 °FClear.10 mph49%29.74 "Hg10 mi
3:00 AM88 °FClear.12 mph49%29.74 "Hg10 mi
Weather by CustomWeather, © 2014

See weather overview